Location: Lawrence Hall of Science
(37.8785°N, 122.2415°W)
Time: 20:19:46
(UTC-08:00)

Cosmos 1461 - Visible Passes

Search period start: 17 December 2014 00:00
Search period end: 27 December 2014 00:00
Orbit: 530 x 666 km, 65.0° (Epoch: 17 December)

Date Brightness Start Highest point End Pass type
(mag) Time Alt. Az. Time Alt. Az. Time Alt. Az.
18 Dec 4.8 17:58:27 10° NNE 18:00:01 14° NNE 18:00:01 14° NNE visible
18 Dec 5.6 19:36:18 10° NW 19:36:47 13° NW 19:36:47 13° NW visible
19 Dec 4.1 18:08:04 10° N 18:11:32 24° NE 18:11:32 24° NE visible
19 Dec 5.5 19:47:04 10° NW 19:48:19 18° WNW 19:48:19 18° WNW visible
20 Dec 3.4 18:18:06 10° NNW 18:22:12 41° NE 18:23:43 30° E visible
20 Dec 5.7 19:58:17 10° WNW 20:00:34 18° W 20:00:34 18° W visible
21 Dec 2.9 18:28:22 10° NNW 18:32:43 78° ENE 18:37:14 10° SE visible
22 Dec 3.7 18:38:53 10° NW 18:43:08 55° WSW 18:47:33 10° SSE visible
23 Dec 5.0 18:49:41 10° NW 18:53:28 29° WSW 18:57:23 10° S visible
24 Dec 3.2 17:20:28 10° NNW 17:24:41 48° ENE 17:29:02 10° SE visible
24 Dec 6.1 19:01:04 10° WNW 19:03:43 16° WSW 19:06:26 10° SSW visible
25 Dec 3.1 17:30:46 10° NNW 17:35:08 90° WSW 17:39:40 10° SSE visible
26 Dec 4.3 17:41:18 10° NW 17:45:29 47° WSW 17:49:50 10° S visible
